Location: Newark
(45.6833°N, 12.6333°E)
Time: 17:39:15
(UTC+00:00)

N. Korean satellite - Pass Details

Date: 17 November 2019
Orbit: 456 x 506 km, 97.2° (Epoch: 06 December)

Event Time Altitude Azimuth Distance (km) Brightness Sun altitude
Rises 16:01:17 0° 162° (SSE) 2,548 10.3 -4.7°
Reaches altitude 10° 16:03:20 10° 160° (SSE) 1,680 9.3 -5.0°
Maximum altitude 16:06:57 74° 76° (ENE) 523 6.6 -5.6°
Drops below altitude 10° 16:10:38 10° 351° (N) 1,719 9.2 -6.2°
Sets 16:12:45 0° 350° (N) 2,613 10.2 -6.5°
